North Bend, OR

8:22 AM PDT on September 27, 2016 (GMT -0700)
North Bend Municipal

Weather History for KOTH - March, 2013

Change the Weather History Date:

Thursday, March 7, 2013

  Actual Average Record
Temperature  
Mean Temperature 45 °F 47 °F  
Max Temperature 54 °F 54 °F 86 °F (1905)
Min Temperature 36 °F 41 °F 28 °F (1924)
Degree Days  
Heating Degree Days 20 18  
Month to date heating degree days 126 126  
Since 1 July heating degree days 3164 3300  
Cooling Degree Days 0 0  
Month to date cooling degree days 0 0  
Year to date cooling degree days 0 0  
Moisture  
Dew Point 40 °F    
Average Humidity 87    
Maximum Humidity 100    
Minimum Humidity 63    
Precipitation  
Precipitation 0.00 in 0.26 in 1.25 in (1986)
Month to date precipitation 1.68 1.91  
Year to date precipitation 8.45 19.69  
Sea Level Pressure  
Sea Level Pressure 30.02 in    
Wind  
Wind Speed 6 mph (ESE)    
Max Wind Speed 13 mph    
Max Gust Speed -    
Visibility 10 miles    
Events      
T = Trace of Precipitation, MM = Missing Value Source: NWS Daily Summary

Daily Weather History Graph

Daily Weather History Graph

Search for Another Location

Airport or City:

Trip Planner

Search our weather history database for the weather conditions in past years. The results will help you decide how hot, cold, wet, or windy it might be!

Date:

Astronomy

Mar. 07, 2013 Rise Set
Actual Time 6:42 AM PST 6:13 PM PST
Civil Twilight 6:14 AM PST 6:42 PM PST
Nautical Twilight 5:41 AM PST 7:15 PM PST
Astronomical Twilight 5:07 AM PST 7:48 PM PST
Moon 3:53 AM PST (3/7) 2:02 PM PST (3/7)
Length of Visible Light 12h 28m
Length of Day
11h 31m
Waning Crescent, 19% of the Moon is Illuminated
Mar 7
Waning Crescent
Mar 11
New
Mar 19
First Quarter
Mar 27
Full
Apr 2
Last Quarter

Hourly Weather History & Observations

Time (PST) Temp. Windchill Dew Point Humidity Pressure Visibility Wind Dir Wind Speed Gust Speed Precip Events Conditions
12:15 AM 41.0 °F 36.4 °F 39.2 °F 93% 29.99 in 10.0 mi SSE 6.9 mph - N/A   Mostly Cloudy
12:35 AM 39.2 °F 35.0 °F 39.2 °F 100% 29.99 in 10.0 mi SSE 5.8 mph - N/A   Partly Cloudy
12:55 AM 39.2 °F 33.6 °F 39.2 °F 100% 30.00 in 10.0 mi SSE 8.1 mph - N/A   Clear
1:15 AM 39.2 °F 33.6 °F 37.4 °F 93% 30.00 in 10.0 mi SSE 8.1 mph - N/A   Clear
1:35 AM 39.2 °F 33.6 °F 37.4 °F 93% 30.00 in 10.0 mi SE 8.1 mph - N/A   Clear
1:55 AM 39.2 °F 34.2 °F 39.2 °F 100% 30.00 in 10.0 mi SE 6.9 mph - N/A   Clear
2:15 AM 39.2 °F 34.2 °F 39.2 °F 100% 30.00 in 10.0 mi SSE 6.9 mph - N/A   Partly Cloudy
2:35 AM 39.2 °F 35.0 °F 39.2 °F 100% 30.00 in 10.0 mi SSE 5.8 mph - N/A   Partly Cloudy
2:55 AM 37.4 °F 34.9 °F 37.4 °F 100% 30.00 in 10.0 mi SSE 3.5 mph - N/A   Clear
3:15 AM 39.2 °F 35.0 °F 39.2 °F 100% 29.99 in 10.0 mi SSE 5.8 mph - N/A   Mostly Cloudy
3:35 AM 37.4 °F 32.8 °F 35.6 °F 93% 29.99 in 10.0 mi SE 5.8 mph - N/A   Mostly Cloudy
3:55 AM 37.4 °F 34.9 °F 37.4 °F 100% 30.00 in 10.0 mi South 3.5 mph - N/A   Partly Cloudy
4:15 AM 37.4 °F 33.8 °F 37.4 °F 100% 30.00 in 10.0 mi SE 4.6 mph - N/A   Mostly Cloudy
4:35 AM 37.4 °F 31.4 °F 37.4 °F 100% 30.01 in 10.0 mi SE 8.1 mph - N/A   Scattered Clouds
4:55 AM 37.4 °F 31.4 °F 37.4 °F 100% 30.01 in 10.0 mi SE 8.1 mph - N/A   Mostly Cloudy
5:15 AM 37.4 °F 31.4 °F 35.6 °F 93% 30.02 in 10.0 mi SE 8.1 mph - N/A   Mostly Cloudy
5:35 AM 37.4 °F 32.8 °F 37.4 °F 100% 30.02 in 10.0 mi SSE 5.8 mph - N/A   Scattered Clouds
5:55 AM 37.4 °F 32.1 °F 37.4 °F 100% 30.03 in 10.0 mi SSE 6.9 mph - N/A   Scattered Clouds
6:15 AM 35.6 °F 29.9 °F 35.6 °F 100% 30.03 in 10.0 mi SE 6.9 mph - N/A   Partly Cloudy
6:35 AM 35.6 °F 29.9 °F 35.6 °F 100% 30.03 in 10.0 mi SSE 6.9 mph - N/A   Clear
6:55 AM 35.6 °F 31.7 °F 35.6 °F 100% 30.03 in 10.0 mi SSE 4.6 mph - N/A   Clear
7:15 AM 35.6 °F 31.7 °F 35.6 °F 100% 30.03 in 10.0 mi SSE 4.6 mph - N/A   Clear
7:35 AM 37.4 °F 32.8 °F 35.6 °F 93% 30.02 in 10.0 mi SSE 5.8 mph - N/A   Clear
7:55 AM 39.2 °F 37.0 °F 37.4 °F 93% 30.03 in 10.0 mi SSE 3.5 mph - N/A   Clear
8:15 AM 39.2 °F 34.2 °F 39.2 °F 100% 30.04 in 10.0 mi SE 6.9 mph - N/A   Clear
8:35 AM 41.0 °F 38.0 °F 39.2 °F 93% 30.04 in 10.0 mi SSE 4.6 mph - N/A   Clear
8:55 AM 42.8 °F 39.3 °F 39.2 °F 87% 30.04 in 9.0 mi SE 5.8 mph - N/A   Clear
9:15 AM 44.6 °F 42.2 °F 41.0 °F 87% 30.04 in 10.0 mi SE 4.6 mph - N/A   Clear
9:35 AM 46.4 °F 43.5 °F 41.0 °F 81% 30.04 in 10.0 mi SE 5.8 mph - N/A   Clear
9:55 AM 46.4 °F 45.2 °F 42.8 °F 87% 30.04 in 10.0 mi SSE 3.5 mph - N/A   Clear
10:15 AM 48.2 °F - 42.8 °F 82% 30.04 in 10.0 mi SE 3.5 mph - N/A   Clear
10:35 AM 50.0 °F - 42.8 °F 76% 30.04 in 10.0 mi ESE 4.6 mph - N/A   Clear
10:55 AM 51.8 °F - 41.0 °F 67% 30.03 in 10.0 mi East 3.5 mph - N/A   Clear
11:15 AM 51.8 °F - 37.4 °F 58% 30.03 in 10.0 mi Calm Calm - N/A   Clear
11:35 AM 51.8 °F - 37.4 °F 58% 30.03 in 10.0 mi North 3.5 mph - N/A   Clear
11:55 AM 51.8 °F - 39.2 °F 62% 30.03 in 10.0 mi NW 4.6 mph - N/A   Clear
12:15 PM 51.8 °F - 39.2 °F 62% 30.03 in 10.0 mi WNW 3.5 mph - N/A   Clear
12:35 PM 53.6 °F - 41.0 °F 62% 30.02 in 10.0 mi NW 9.2 mph - N/A   Clear
12:55 PM 51.8 °F - 42.8 °F 71% 30.02 in 10.0 mi NW 11.5 mph - N/A   Clear
1:15 PM 51.8 °F - 41.0 °F 67% 30.02 in 10.0 mi WNW 11.5 mph - N/A   Clear
1:35 PM 51.8 °F - 41.0 °F 67% 30.02 in 10.0 mi NW 12.7 mph - N/A   Clear
1:55 PM 51.8 °F - 41.0 °F 67% 30.02 in 10.0 mi WNW 12.7 mph - N/A   Clear
2:15 PM 51.8 °F - 41.0 °F 67% 30.02 in 10.0 mi NNW 11.5 mph - N/A   Clear
2:35 PM 51.8 °F - 41.0 °F 67% 30.02 in 10.0 mi NW 10.4 mph - N/A   Clear
2:55 PM 51.8 °F - 41.0 °F 67% 30.02 in 10.0 mi NNW 12.7 mph - N/A   Clear
3:15 PM 51.8 °F - 41.0 °F 67% 30.02 in 10.0 mi NNW 10.4 mph - N/A   Clear
3:35 PM 51.8 °F - 41.0 °F 67% 30.02 in 10.0 mi NNW 11.5 mph - N/A   Clear
3:55 PM 51.8 °F - 41.0 °F 67% 30.03 in 10.0 mi NNW 10.4 mph - N/A   Clear
4:15 PM 51.8 °F - 41.0 °F 67% 30.02 in 10.0 mi North 8.1 mph - N/A   Clear
4:35 PM 51.8 °F - 39.2 °F 62% 30.02 in 10.0 mi North 10.4 mph - N/A   Clear
4:55 PM 50.0 °F - 41.0 °F 71% 30.02 in 10.0 mi NNW 9.2 mph - N/A   Clear
5:15 PM 50.0 °F - 41.0 °F 71% 30.02 in 10.0 mi NNW 9.2 mph - N/A   Clear
5:35 PM 48.2 °F - 41.0 °F 76% 30.02 in 10.0 mi North 9.2 mph - N/A   Clear
5:55 PM 48.2 °F - 42.8 °F 82% 30.02 in 10.0 mi North 9.2 mph - N/A   Clear
6:15 PM 46.4 °F 41.9 °F 42.8 °F 87% 30.03 in 10.0 mi North 9.2 mph - N/A   Clear
6:35 PM 46.4 °F 41.9 °F 42.8 °F 87% 30.02 in 10.0 mi North 9.2 mph - N/A   Clear
6:55 PM 46.4 °F 42.9 °F 42.8 °F 87% 30.03 in 10.0 mi North 6.9 mph - N/A   Clear
7:15 PM 44.6 °F 41.4 °F 42.8 °F 93% 30.03 in 10.0 mi NNE 5.8 mph - N/A   Clear
7:35 PM 44.6 °F 41.4 °F 42.8 °F 93% 30.04 in 10.0 mi North 5.8 mph - N/A   Clear
7:55 PM 44.6 °F 42.2 °F 42.8 °F 93% 30.04 in 10.0 mi NNE 4.6 mph - N/A   Clear
8:15 PM 44.6 °F 43.1 °F 42.8 °F 93% 30.04 in 10.0 mi NNE 3.5 mph - N/A   Clear
8:35 PM 42.8 °F 41.1 °F 42.8 °F 100% 30.04 in 10.0 mi NNE 3.5 mph - N/A   Clear
8:55 PM 41.0 °F - 41.0 °F 100% 30.04 in 10.0 mi Calm Calm - N/A   Clear
9:15 PM 39.2 °F 37.0 °F 39.2 °F 100% 30.04 in 10.0 mi SSE 3.5 mph - N/A   Partly Cloudy
9:35 PM 41.0 °F - 41.0 °F 100% 30.04 in 10.0 mi Calm Calm - N/A   Clear
9:55 PM 41.0 °F - 41.0 °F 100% 30.04 in 10.0 mi Calm Calm - N/A   Clear
10:15 PM 39.2 °F - 37.4 °F 93% 30.04 in 10.0 mi Calm Calm - N/A   Clear
10:35 PM 39.2 °F - 39.2 °F 100% 30.04 in 10.0 mi Calm Calm - N/A   Clear
10:55 PM 39.2 °F - 39.2 °F 100% 30.04 in 9.0 mi Calm Calm - N/A   Clear
11:15 PM 37.4 °F 33.8 °F 35.6 °F 93% 30.04 in 9.0 mi SSE 4.6 mph - N/A   Clear
11:35 PM 37.4 °F 33.8 °F 37.4 °F 100% 30.04 in 8.0 mi SSE 4.6 mph - N/A   Clear
11:55 PM 35.6 °F 31.7 °F 35.6 °F 100% 30.04 in 7.0 mi SSE 4.6 mph - N/A   Clear